Hourly Data Report for October 07, 2014

All times are specified in Local Standard Time (LST). Add 1 hour to adjust for Daylight Saving Time where and when it is observed.

BAKER LAKE A
NUNAVUT

64°17'56.000" N
96°04'40.000" W
18.60 m
2300503
71926
YBK

Download Data

Hourly Data (October 2014)
Hourly Data Report for October 7, 2014
Temp Definition
°C
Dew Point Temp Definition
°C
Rel Hum Definition
%
Wind Dir Definition
10's deg

Wind Spd Definition
km/h
Visibility Definition
km
Stn Press Definition
kPa
Hmdx Definition


Wind Chill Definition


Weather Definition


TIME
00:00 Legend Double Dagger 1.4 1.1 98 8 22 24.1 100.94     Cloudy
01:00 Legend Double Dagger 1.2 1.1 99 7 14 24.1 100.98     LegendNANA
02:00 Legend Double Dagger 1.0 0.9 99 8 18 24.1 101.09     LegendNANA
03:00 Legend Double Dagger 0.8 0.7 99 6 18 24.1 101.14     Cloudy
04:00 Legend Double Dagger 0.6 0.5 99 7 17 24.1 101.18     LegendNANA
05:00 Legend Double Dagger 0.8 0.7 99 7 13 24.1 101.22     LegendNANA
06:00 Legend Double Dagger 1.1 0.5 96 7 13 24.1 101.27     Cloudy
07:00 Legend Double Dagger 0.7 0.3 97 6 14 24.1 101.33     Fog
08:00 Legend Double Dagger 1.0 0.6 97 3 12 24.1 101.34     Fog
09:00 Legend Double Dagger 1.4 0.7 95 7 22 32.2 101.34     Cloudy
10:00 Legend Double Dagger 1.5 0.8 95 8 10 32.2 101.40     LegendNANA
11:00 Legend Double Dagger 1.8 0.8 93 4 10 32.2 101.43     LegendNANA
12:00 Legend Double Dagger 2.3 1.3 93 6 12 24.1 101.46     Cloudy
13:00 Legend Double Dagger 2.5 1.3 92 5 12 32.2 101.50     LegendNANA
14:00 Legend Double Dagger 2.4 0.9 90 6 17 32.2 101.53     LegendNANA
15:00 Legend Double Dagger 2.6 1.4 92 7 7 32.2 101.57     Cloudy
16:00 Legend Double Dagger 2.5 1.3 92 8 7 32.2 101.62     LegendNANA
17:00 Legend Double Dagger 2.5 1.5 93 2 12 32.2 101.68     LegendNANA
18:00 Legend Double Dagger 2.0 1.3 95 36 13 32.2 101.73     Cloudy
19:00 Legend Double Dagger 1.8 1.4 97 1 15 24.1 101.74     LegendNANA
20:00 Legend Double Dagger 1.5 0.9 96 35 13 24.1 101.77     LegendNANA
21:00 Legend Double Dagger 1.4 0.8 96 35 12 24.1 101.79     Cloudy
22:00 Legend Double Dagger 1.4 1.0 97 36 10 24.1 101.81     LegendNANA
23:00 Legend Double Dagger 1.2 0.8 97 34 12 24.1 101.84     LegendNANA

Notes on Data Quality.

Legend

  • E = Estimated
  • M = Missing
  • NA = Not Available
  • ‡ = Partner data that is not subject to review by the National Climate Archives
Date modified: